Погода в Устивице

Украина / Полтавская область     49°52′02″N   33°48′17″E
темп.,
°C
ветер,
м/с
пор.,
м/с
влажн.,
%
обл.,
%
осадки,
мм/ч
давл.,
гПа
погр.,
м
23 апреля, пт
пт2300:00+11ю4116897 0.0 1018324
03:00+9ю5117799 0.0 1018293
06:00+9ююв51178100 0.0 1017329
09:00+11ююз697086 0.0 1017575
12:00+15ююз8116198 0.3 10161535
15:00+11з4789100 2.8 1015493
18:00+7ссз5786100 4.4 1016652
21:00+6сз4789100 5.1 1017850
24 апреля, сб
сб2400:00+6з2486100 0.4 1016298
03:00+4з411870 0.4 1016285
06:00+3з410880 0.0 1016283
09:00+7зсз68635 0.0 1017976
12:00+9з6942100 0.0 10172291
15:00+7зсз7115795 0.7 10181794
18:00+7зсз710515 0.1 10192091
21:00+4з49664 0.1 1021235
25 апреля, вс
вс2500:00+2зюз37720 0.0 1021139
03:00+1зюз38730 0.0 1021144
06:00+1зюз36720 0.0 1021108
09:00+7юз57575 0.0 1021679
12:00+10юз71045100 0.0 10192239
15:00+11зюз6950100 0.1 10171850
18:00+9з687268 0.7 10171141
21:00+5зсз1490100 2.8 1019313
26 апреля, пн
пн2600:00+5ю2290100 0.7 101860
03:00+3юз2294100 0.7 101813
06:00+4сз1291100 0.0 101754
09:00+5сз0266100 0.3 1017604
12:00+9сз2347100 0.1 10161851
15:00+10зсз3538100 0.1 10152201
18:00+10з344132 0.0 10141918
21:00+6з3467100 0.1 101575
27 апреля, вт
вт2700:00+4юз37813 0.2 1015134
03:00+2з398624 0.2 1015204
06:00+1з378865 0.0 1015216
09:00+6з455949 0.0 1015905
12:00+9з56415 0.0 10152036
15:00+11зюз6835100 0.0 10142630
18:00+10з584761 0.0 10142113
21:00+5зсз37705 0.0 1016138